TimeIST,TemperatureF,Dew PointF,Humidity,Sea Level PressureIn,VisibilityMPH,Wind Direction,Wind SpeedMPH,Gust SpeedMPH,PrecipitationIn,Events,Conditions,WindDirDegrees,DateUTC
12:00 AM,55.4,53.6,94,29.71,6.2,SW,6.9,-,N/A,,Scattered Clouds,230,2013-08-17 23:00:00
12:30 AM,53.6,53.6,100,29.71,6.2,WSW,9.2,-,N/A,,Scattered Clouds,240,2013-08-17 23:30:00
1:00 AM,53,53,100,29.74,16,SW,6.7,,,,Partly Cloudy,230,2013-08-18 00:00:00
1:00 AM,53.6,53.6,100,29.71,6.2,SW,6.9,-,N/A,,Scattered Clouds,230,2013-08-18 00:00:00
1:30 AM,53.6,53.6,100,29.74,6.2,WSW,9.2,-,N/A,,Scattered Clouds,240,2013-08-18 00:30:00
2:00 AM,53.6,53.6,100,29.74,6.2,WSW,8.1,-,N/A,,Scattered Clouds,240,2013-08-18 01:00:00
2:30 AM,53.6,53.6,100,29.74,6.2,WSW,9.2,-,N/A,,Scattered Clouds,240,2013-08-18 01:30:00
3:00 AM,55.4,53.6,94,29.74,6.2,WSW,6.9,-,N/A,,Scattered Clouds,240,2013-08-18 02:00:00
3:30 AM,55.4,55.4,100,29.74,6.2,WSW,6.9,-,N/A,,Scattered Clouds,240,2013-08-18 02:30:00
4:00 AM,55.4,53.6,94,29.74,6.2,WSW,6.9,-,N/A,,Scattered Clouds,250,2013-08-18 03:00:00
4:30 AM,53.6,53.6,100,29.74,6.2,WSW,8.1,-,N/A,,Scattered Clouds,250,2013-08-18 03:30:00
5:00 AM,53.6,53.6,100,29.74,6.2,WSW,9.2,-,N/A,,Mostly Cloudy,250,2013-08-18 04:00:00
5:30 AM,55.4,53.6,94,29.74,6.2,West,6.9,-,N/A,,Light Drizzle,260,2013-08-18 04:30:00
6:00 AM,51.8,51.8,100,29.77,6.2,SW,4.6,-,N/A,,Scattered Clouds,230,2013-08-18 05:00:00
6:30 AM,51.8,51.8,100,29.77,6.2,WSW,6.9,-,N/A,,Mostly Cloudy,240,2013-08-18 05:30:00
7:00 AM,52,52,100,29.80,22,WSW,6.7,,,,Partly Cloudy,250,2013-08-18 06:00:00
7:00 AM,51.8,51.8,100,29.77,6.2,WSW,6.9,-,N/A,,Scattered Clouds,250,2013-08-18 06:00:00
7:30 AM,53.6,53.6,100,29.80,6.2,West,8.1,-,N/A,,Scattered Clouds,260,2013-08-18 06:30:00
8:00 AM,55.4,53.6,94,29.80,6.2,WSW,9.2,-,N/A,,Partly Cloudy,250,2013-08-18 07:00:00
8:30 AM,57.2,53.6,88,29.80,6.2,West,12.7,-,N/A,,Partly Cloudy,260,2013-08-18 07:30:00
9:00 AM,57.2,53.6,88,29.80,6.2,West,10.4,-,N/A,,Partly Cloudy,260,2013-08-18 08:00:00
9:30 AM,59.0,51.8,77,29.83,6.2,West,11.5,-,N/A,,Partly Cloudy,280,2013-08-18 08:30:00
10:00 AM,59.0,50.0,72,29.83,6.2,West,13.8,-,N/A,,Scattered Clouds,280,2013-08-18 09:00:00
10:30 AM,60.8,50.0,68,29.83,6.2,West,11.5,-,N/A,,Mostly Cloudy,270,2013-08-18 09:30:00
11:00 AM,60.8,50.0,68,29.83,6.2,West,13.8,-,N/A,,Mostly Cloudy,280,2013-08-18 10:00:00
11:30 AM,62.6,51.8,68,29.83,6.2,West,12.7,-,N/A,,Scattered Clouds,270,2013-08-18 10:30:00
12:00 PM,60.8,48.2,63,29.83,6.2,WNW,13.8,-,N/A,,Scattered Clouds,290,2013-08-18 11:00:00
12:30 PM,60.8,48.2,63,29.86,6.2,WNW,12.7,-,N/A,,Scattered Clouds,300,2013-08-18 11:30:00
1:00 PM,63,45,41,29.86,37,WNW,15.7,,,,Mostly Cloudy,300,2013-08-18 12:00:00
1:00 PM,62.6,46.4,55,29.86,6.2,WNW,15.0,-,N/A,,Mostly Cloudy,300,2013-08-18 12:00:00
1:30 PM,64.4,48.2,56,29.86,6.2,WNW,13.8,-,N/A,,Mostly Cloudy,300,2013-08-18 12:30:00
2:00 PM,64.4,46.4,52,29.86,6.2,West,12.7,-,N/A,,Mostly Cloudy,260,2013-08-18 13:00:00
2:30 PM,62.6,46.4,55,29.86,6.2,WNW,9.2,-,N/A,,Scattered Clouds,290,2013-08-18 13:30:00
3:00 PM,64.4,48.2,56,29.86,6.2,West,11.5,-,N/A,,Mostly Cloudy,280,2013-08-18 14:00:00
3:30 PM,62.6,48.2,59,29.86,6.2,West,11.5,-,N/A,,Mostly Cloudy,270,2013-08-18 14:30:00
4:00 PM,62.6,50.0,63,29.86,6.2,West,13.8,-,N/A,,Mostly Cloudy,260,2013-08-18 15:00:00
4:30 PM,60.8,51.8,72,29.86,6.2,West,16.1,-,N/A,Rain,Light Rain Showers,260,2013-08-18 15:30:00
5:00 PM,59.0,53.6,82,29.86,6.2,West,11.5,-,N/A,,Mostly Cloudy,280,2013-08-18 16:00:00
5:30 PM,60.8,55.4,82,29.86,6.2,WSW,11.5,-,N/A,,Mostly Cloudy,250,2013-08-18 16:30:00
6:00 PM,60.8,53.6,77,29.86,6.2,WSW,11.5,-,N/A,,Mostly Cloudy,240,2013-08-18 17:00:00
6:30 PM,60.8,53.6,77,29.89,5.6,WSW,12.7,-,N/A,,Mostly Cloudy,250,2013-08-18 17:30:00
7:00 PM,58,56,89,29.90,25,WNW,11.2,,,Rain,Light Rain Showers,290,2013-08-18 18:00:00
7:00 PM,57.2,55.4,94,29.89,6.2,WNW,11.5,-,N/A,,Mostly Cloudy,290,2013-08-18 18:00:00
7:30 PM,59.0,55.4,88,29.89,6.2,WNW,10.4,-,N/A,,Scattered Clouds,290,2013-08-18 18:30:00
8:00 PM,57.2,53.6,88,29.89,6.2,NW,6.9,-,N/A,,Scattered Clouds,310,2013-08-18 19:00:00
8:30 PM,57.2,51.8,82,29.92,6.2,NW,8.1,-,N/A,,Scattered Clouds,310,2013-08-18 19:30:00
9:00 PM,55.4,51.8,88,29.92,6.2,WNW,6.9,-,N/A,,Partly Cloudy,300,2013-08-18 20:00:00
9:30 PM,55.4,50.0,82,29.92,6.2,WNW,5.8,-,N/A,,Scattered Clouds,300,2013-08-18 20:30:00
10:00 PM,55.4,50.0,82,29.95,6.2,WSW,3.5,-,N/A,,Scattered Clouds,250,2013-08-18 21:00:00
10:30 PM,53.6,50.0,88,29.95,6.2,West,6.9,-,N/A,,Partly Cloudy,280,2013-08-18 21:30:00
11:00 PM,53.6,50.0,88,29.98,6.2,West,5.8,-,N/A,,Partly Cloudy,260,2013-08-18 22:00:00
11:30 PM,53.6,50.0,88,29.98,6.2,West,6.9,-,N/A,,Partly Cloudy,270,2013-08-18 22:30:00